Weather in Rodniki

Russia / Perm Krai     59°33′24″N   56°44′18″E
temp.,
°C
wind,
m/s
gust,
m/s
humid.,
%
clouds,
%
prec.,
mm/h
press.,
hPa
HPBL,
m
6 august, fri
fri623:00+13nnw312965 0.0 1012417
02:00+11nnw29976 0.0 1013203
05:00+10nw2798100 0.0 1014174
08:00+12nnw4107799 0.0 1015335
11:00+17nnw5858100 0.0 10151046
14:00+19nnw5748100 0.0 10151601
17:00+19nnw5748100 0.0 10151764
20:00+16nnw3864100 0.0 1015350
7 august, sat
sat723:00+12nnw31179100 0.0 1016342
02:00+9nw3118845 0.0 1016282
05:00+8nw210974 0.0 1016249
08:00+12nw410817 0.0 1017501
11:00+16nnw576161 0.0 10161268
14:00+16nnw5865100 0.0 10161470
17:00+15nnw4971100 0.0 10171119
20:00+14nnw41171100 0.0 1018936
8 august, sun
sun823:00+12nnw4118267 0.0 1018641
02:00+10nnw399066 0.0 1019433
05:00+11nnw4985100 0.0 1020433
08:00+12nnw488396 0.0 1021417
11:00+15n467293 0.0 1021810
14:00+19n356284 0.0 10211166
17:00+20n355744 0.0 10211452
20:00+17n22757 0.0 102139
9 august, mon
mon923:00+11ne26965 0.0 1022115
02:00+9n229661 0.0 102320
05:00+8n22965 0.0 102337
08:00+12n258095 0.0 1023258
11:00+16nnw355620 0.0 1022847
14:00+19nnw3446100 0.0 10221233
17:00+19nw2455100 0.0 10211004
20:00+14wnw3781100 0.0 1021224
10 august, tue
tue1023:00+13nw1287100 0.0 102166
02:00+12nne118964 0.0 102010
05:00+12wnw008497 0.0 102015
08:00+14nw1179100 0.0 1020126
11:00+16n1268100 0.0 1019383
14:00+17n2260100 0.0 1019495
17:00+17nnw247093 0.0 1019283
20:00+16wnw24780 0.0 1019101